COSMOS 683

Satellite information

Favourite Embed

Satellite Type and Status

PAYLOADIN ORBIT

Key statistics

Satellite COSMOS 683 at a glance.

Uptime

18552

Days in orbit

Revolutions

≈ 12.5

Per day

Orbit

LEO

Low Earth Orbit

Inclination

74.0

Latest

Satellite identification and parameters

Extended collection of information and parameters for COSMOS 683.

Object identification

Identified? True

Debris? False

Object name: COSMOS 683

International designator: 1974-072G

Object number (NORAD): 7441

Object ID (CCSDS): 7441

Country: COMMONWEALTH OF INDEPENDENT STATES (CIS)

Current information (Y/N): Y

RCS size: MEDIUM

Orbital parameters

Period: 114.877 minutes

Inclination: 74.0356 deg

SMA: 7827.976 km

Apoapsis: 1465.532 km

Periapsis: 1434.151 km

RAAN: 271.9385 deg

Eccentricy: 0.0020044

Argument of periapsis: 98.7412 deg

Mean anomaly: 261.5913 deg

Mean motion: 12.53512072 rev/day

Mean motion (dot): -0.00000026 rev/day2

B* drag term: -0.000062415 1/REarth

Two-line elements (TLE)

Creation date: July 4, 2025, 6:39 p.m.

Reference frame: TEME

Reference center: EARTH

Epoch: July 4, 2025, 1:31 p.m. UTC

TLE line 0: 0 COSMOS 683

TLE line 1: 1 07441U 74072G 25185.56320968 -.00000026 00000-0 -62415-4 0 9998

TLE line 2: 2 07441 74.0356 271.9385 0020044 98.7412 261.5913 12.53512072324092

Live tracking on map

Real-time ground track for satellite COSMOS 683.

In-orbit conjunctions

A list of the most updated potential collisions computed for object COSMOS 683.

Target Orbit TCA Probability of collision Miss distance Type
THORAD DELTA 1 DEB SSO 2024-06-15 16:26:38 0.0003564761 493.0 (m) DEBRIS

Associated space launch

Military communications satellites

COSMOS 683 was lifted into orbit during the mission ‘Kosmos-3M | Strela-1M 73-80’, on board a Kosmos-3M space rocket.

The launch took place on Sept. 19, 1974, 2:57 p.m. from 132/2.

For more information about the launch, click the button.

Launch to space Kosmos-3M | Strela-1M 73-80
Kosmos-3M | Strela-1M 73-80

Agency: N/A

Status: Launch Successful

Launch date: Sept. 19, 1974, 2:57 p.m. UTC

Rocket: Kosmos-3M

Launch pad: 132/2

Location: Plesetsk Cosmodrome, Russian Federation

...

Latest news about this satellite

There are no fresh news available about this satellite. Check back as we update our databases every day.


Newsletter sign-up

Weekly statistics, charts and insights to help you stay on top of the space industry.